| time (UTC) | temp F | wind direction | speed knots | gust knots | rain 1hr in | rain 24hr in | rain mn in | humidity % | barometer mb |
| 20260902060546 | 85 | 0 | 0.0 | 2.6 | 0.00 | 0.00 | 0.00 | 71 | 1015.6 |
| 20260902060113 | 85 | 0 | 0.9 | 2.6 | 0.00 | 0.00 | 0.00 | 71 | 1015.6 |
| 20260902055546 | 85 | 64 | 0.0 | 3.5 | 0.00 | 0.00 | 0.00 | 70 | 1015.7 |
| 20260902055047 | 85 | 0 | 0.0 | 3.5 | 0.00 | 0.00 | 0.00 | 70 | 1015.7 |
| 20260902054611 | 85 | 0 | 0.0 | 2.6 | 0.00 | 0.00 | 0.00 | 70 | 1015.6 |
| 20260902054048 | 86 | 0 | 0.0 | 2.6 | 0.00 | 0.00 | 0.00 | 70 | 1015.5 |
| 20260902053547 | 86 | 63 | 0.0 | 2.6 | 0.00 | 0.00 | 0.00 | 70 | 1015.6 |
| 20260902053107 | 86 | 0 | 0.0 | 2.6 | 0.00 | 0.00 | 0.00 | 69 | 1015.5 |
| 20260902052551 | 86 | 0 | 0.0 | 0.9 | 0.00 | 0.00 | 0.00 | 69 | 1015.6 |
| 20260902052047 | 86 | 0 | 0.0 | 2.6 | 0.00 | 0.00 | 0.00 | 69 | 1015.5 |
| 20260902051603 | 86 | 0 | 0.0 | 2.6 | 0.00 | 0.00 | 0.00 | 69 | 1015.6 |
| 20260902051047 | 86 | 0 | 0.0 | 1.7 | 0.00 | 0.00 | 0.00 | 68 | 1015.4 |
| 20260902050547 | 87 | 0 | 0.0 | 1.7 | 0.00 | 0.00 | 0.00 | 68 | 1015.5 |
| 20260902050103 | 87 | 0 | 0.0 | 1.7 | 0.00 | 0.00 | 0.00 | 68 | 1015.6 |
| 20260902045547 | 87 | 70 | 0.0 | 2.6 | 0.00 | 0.00 | 0.00 | 67 | 1015.5 |
| 20260902045047 | 87 | 0 | 0.0 | 3.5 | 0.00 | 0.00 | 0.00 | 67 | 1015.5 |
| 20260902044618 | 87 | 0 | 0.9 | 3.5 | 0.00 | 0.00 | 0.00 | 67 | 1015.4 |
| 20260902044046 | 87 | 0 | 0.0 | 2.6 | 0.00 | 0.00 | 0.00 | 66 | 1015.4 |
| 20260902043545 | 87 | 82 | 0.0 | 2.6 | 0.00 | 0.00 | 0.00 | 66 | 1015.5 |
| 20260902043109 | 88 | 0 | 0.0 | 2.6 | 0.00 | 0.00 | 0.00 | 66 | 1015.5 |
| 20260902042549 | 88 | 0 | 0.0 | 2.6 | 0.00 | 0.00 | 0.00 | 65 | 1015.5 |
| 20260902042046 | 88 | 66 | 0.0 | 2.6 | 0.00 | 0.00 | 0.00 | 65 | 1015.5 |
| 20260902041608 | 88 | 65 | 0.0 | 2.6 | 0.00 | 0.00 | 0.00 | 65 | 1015.6 |
| 20260902041046 | 88 | 0 | 0.0 | 5.2 | 0.00 | 0.00 | 0.00 | 64 | 1015.5 |
| 20260902040546 | 88 | 62 | 0.0 | 5.2 | 0.00 | 0.00 | 0.00 | 64 | 1015.4 |
| 20260902040105 | 89 | 62 | 0.9 | 5.2 | 0.00 | 0.00 | 0.00 | 64 | 1015.5 |
| 20260902035547 | 89 | 0 | 0.0 | 1.7 | 0.00 | 0.00 | 0.00 | 63 | 1015.3 |
| 20260902035046 | 89 | 0 | 0.0 | 3.5 | 0.00 | 0.00 | 0.00 | 63 | 1015.3 |
| 20260902034609 | 89 | 0 | 0.0 | 3.5 | 0.00 | 0.00 | 0.00 | 63 | 1015.3 |
| 20260902034047 | 89 | 62 | 0.0 | 2.6 | 0.00 | 0.00 | 0.00 | 62 | 1015.2 |
| 20260902033546 | 89 | 0 | 0.0 | 2.6 | 0.00 | 0.00 | 0.00 | 62 | 1015.1 |
| 20260902033054 | 89 | 0 | 0.0 | 0.9 | 0.00 | 0.00 | 0.00 | 61 | 1015.0 |
| 20260902032548 | 89 | 0 | 0.0 | 1.7 | 0.00 | 0.00 | 0.00 | 61 | 1015.0 |
| 20260902032046 | 89 | 0 | 0.0 | 1.7 | 0.00 | 0.00 | 0.00 | 61 | 1014.9 |
| 20260902031600 | 89 | 0 | 0.0 | 1.7 | 0.00 | 0.00 | 0.00 | 61 | 1014.9 |
| 20260902031050 | 90 | 0 | 0.0 | 1.7 | 0.00 | 0.00 | 0.00 | 60 | 1014.7 |
| 20260902030550 | 90 | 0 | 0.0 | 0.9 | 0.00 | 0.00 | 0.00 | 60 | 1014.7 |
| 20260902030058 | 90 | 0 | 0.0 | 0.9 | 0.00 | 0.00 | 0.00 | 60 | 1014.7 |
| 20260902025547 | 90 | 0 | 0.0 | 0.0 | 0.00 | 0.00 | 0.00 | 60 | 1014.6 |
| 20260902025049 | 90 | 0 | 0.0 | 0.0 | 0.00 | 0.00 | 0.00 | 59 | 1014.4 |
| 20260902024604 | 90 | 0 | 0.0 | 0.9 | 0.00 | 0.00 | 0.00 | 59 | 1014.3 |
| 20260902024046 | 91 | 0 | 0.0 | 0.9 | 0.00 | 0.00 | 0.00 | 60 | 1014.2 |
| 20260902023546 | 91 | 0 | 0.0 | 1.7 | 0.00 | 0.00 | 0.00 | 58 | 1014.1 |
| 20260902023059 | 91 | 0 | 0.0 | 2.6 | 0.00 | 0.00 | 0.00 | 58 | 1014.0 |
| 20260902022547 | 91 | 60 | 0.0 | 2.6 | 0.00 | 0.00 | 0.00 | 58 | 1013.9 |
| 20260902022049 | 91 | 0 | 0.0 | 0.9 | 0.00 | 0.00 | 0.00 | 57 | 1013.8 |
| 20260902021552 | 91 | 0 | 0.0 | 1.7 | 0.00 | 0.00 | 0.00 | 57 | 1013.9 |
| 20260902021046 | 91 | 0 | 0.0 | 5.2 | 0.00 | 0.00 | 0.00 | 57 | 1013.7 |
| 20260902020547 | 91 | 0 | 0.0 | 5.2 | 0.00 | 0.00 | 0.00 | 57 | 1013.7 |
| 20260902020059 | 92 | 0 | 0.0 | 5.2 | 0.00 | 0.00 | 0.00 | 56 | 1013.6 |
| 20260902015546 | 92 | 0 | 0.0 | 2.6 | 0.00 | 0.00 | 0.00 | 56 | 1013.6 |
| 20260902015046 | 92 | 0 | 0.0 | 2.6 | 0.00 | 0.00 | 0.00 | 56 | 1013.5 |
| 20260902014556 | 92 | 100 | 0.0 | 5.2 | 0.00 | 0.00 | 0.00 | 55 | 1013.5 |
| 20260902014046 | 92 | 0 | 0.0 | 5.2 | 0.00 | 0.00 | 0.00 | 55 | 1013.5 |
| 20260902013547 | 93 | 0 | 0.0 | 7.0 | 0.00 | 0.00 | 0.00 | 54 | 1013.4 |
| 20260902013101 | 93 | 0 | 0.0 | 7.0 | 0.00 | 0.00 | 0.00 | 54 | 1013.4 |
| 20260902012546 | 93 | 0 | 0.9 | 7.0 | 0.00 | 0.00 | 0.00 | 53 | 1013.3 |
| 20260902012046 | 93 | 60 | 0.9 | 7.0 | 0.00 | 0.00 | 0.00 | 52 | 1013.1 |
| 20260902011603 | 94 | 0 | 0.0 | 1.7 | 0.00 | 0.00 | 0.00 | 50 | 1013.1 |
| 20260902011047 | 94 | 0 | 0.0 | 1.7 | 0.00 | 0.00 | 0.00 | 49 | 1013.0 |
| 20260902010546 | 94 | 0 | 0.0 | 2.6 | 0.00 | 0.00 | 0.00 | 49 | 1012.9 |
| 20260902005546 | 94 | 70 | 0.0 | 1.7 | 0.00 | 0.00 | 0.00 | 49 | 1012.9 |
| 20260902005050 | 94 | 0 | 0.0 | 1.7 | 0.00 | 0.00 | 0.00 | 49 | 1012.9 |
| 20260902004601 | 94 | 70 | 0.0 | 1.7 | 0.00 | 0.00 | 0.00 | 49 | 1013.0 |
| 20260902004046 | 95 | 0 | 0.0 | 1.7 | 0.00 | 0.00 | 0.00 | 49 | 1013.0 |
| 20260902003546 | 95 | 0 | 0.0 | 0.9 | 0.00 | 0.00 | 0.00 | 50 | 1013.1 |
| 20260902003128 | 95 | 0 | 0.0 | 2.6 | 0.00 | 0.00 | 0.00 | 48 | 1013.2 |
| 20260902002546 | 95 | 0 | 0.0 | 2.6 | 0.00 | 0.00 | 0.00 | 49 | 1013.3 |
| 20260902002046 | 95 | 71 | 0.0 | 1.7 | 0.00 | 0.00 | 0.00 | 49 | 1013.1 |
| 20260902001559 | 95 | 0 | 0.0 | 1.7 | 0.00 | 0.00 | 0.00 | 49 | 1013.1 |
| 20260902001047 | 95 | 0 | 0.0 | 1.7 | 0.00 | 0.00 | 0.00 | 48 | 1013.1 |
| 20260902000546 | 96 | 71 | 0.0 | 1.7 | 0.00 | 0.00 | 0.00 | 49 | 1013.1 |
| 20260902000100 | 96 | 71 | 0.0 | 1.7 | 0.00 | 0.00 | 0.00 | 48 | 1013.1 |
| 20260901235546 | 96 | 0 | 0.0 | 2.6 | 0.00 | 0.00 | 0.00 | 48 | 1013.1 |
| 20260901235047 | 96 | 0 | 0.0 | 3.5 | 0.00 | 0.00 | 0.00 | 48 | 1013.1 |
| 20260901234603 | 97 | 0 | 0.9 | 3.5 | 0.00 | 0.00 | 0.00 | 48 | 1013.1 |
| 20260901234046 | 97 | 113 | 0.0 | 3.5 | 0.00 | 0.00 | 0.00 | 47 | 1013.1 |
| 20260901233548 | 97 | 118 | 0.0 | 2.6 | 0.00 | 0.00 | 0.00 | 47 | 1013.1 |
| 20260901233100 | 97 | 0 | 0.9 | 2.6 | 0.00 | 0.00 | 0.00 | 47 | 1013.0 |
| 20260901232546 | 97 | 152 | 0.9 | 2.6 | 0.00 | 0.00 | 0.00 | 47 | 1013.0 |
| 20260901232046 | 98 | 83 | 0.0 | 1.7 | 0.00 | 0.00 | 0.00 | 47 | 1012.9 |
| 20260901231602 | 98 | 0 | 0.0 | 2.6 | 0.00 | 0.00 | 0.00 | 46 | 1012.9 |
| 20260901231046 | 98 | 0 | 0.0 | 2.6 | 0.00 | 0.00 | 0.00 | 46 | 1012.9 |
| 20260901230546 | 98 | 83 | 0.0 | 1.7 | 0.00 | 0.00 | 0.00 | 46 | 1012.8 |
| 20260901230058 | 98 | 0 | 0.0 | 2.6 | 0.00 | 0.00 | 0.00 | 47 | 1012.9 |
| 20260901225547 | 98 | 0 | 0.0 | 3.5 | 0.00 | 0.00 | 0.00 | 45 | 1013.0 |
| 20260901225046 | 98 | 83 | 0.0 | 3.5 | 0.00 | 0.00 | 0.00 | 46 | 1013.0 |
| 20260901224556 | 98 | 0 | 0.0 | 1.7 | 0.00 | 0.00 | 0.00 | 46 | 1013.0 |
| 20260901224046 | 98 | 0 | 0.0 | 1.7 | 0.00 | 0.00 | 0.00 | 45 | 1013.0 |
| 20260901223546 | 98 | 0 | 0.0 | 2.6 | 0.00 | 0.00 | 0.00 | 46 | 1013.0 |
| 20260901223052 | 99 | 130 | 0.0 | 2.6 | 0.00 | 0.00 | 0.00 | 45 | 1013.0 |
| 20260901222547 | 99 | 86 | 0.9 | 2.6 | 0.00 | 0.00 | 0.00 | 44 | 1012.9 |
| 20260901222048 | 99 | 88 | 0.0 | 2.6 | 0.00 | 0.00 | 0.00 | 45 | 1013.0 |
| 20260901221609 | 99 | 71 | 0.0 | 2.6 | 0.00 | 0.00 | 0.00 | 45 | 1013.1 |
| 20260901221047 | 99 | 68 | 0.0 | 2.6 | 0.00 | 0.00 | 0.00 | 44 | 1013.0 |
| 20260901220546 | 99 | 68 | 0.0 | 5.2 | 0.00 | 0.00 | 0.00 | 43 | 1013.0 |
| 20260901220059 | 99 | 0 | 1.7 | 5.2 | 0.00 | 0.00 | 0.00 | 43 | 1013.0 |
| 20260901215547 | 99 | 55 | 0.0 | 6.1 | 0.00 | 0.00 | 0.00 | 43 | 1012.9 |
| 20260901215047 | 99 | 0 | 0.9 | 6.1 | 0.00 | 0.00 | 0.00 | 43 | 1013.0 |
| 20260901214556 | 100 | 54 | 0.0 | 6.1 | 0.00 | 0.00 | 0.00 | 43 | 1013.1 |
| 20260901214046 | 100 | 63 | 0.9 | 6.1 | 0.00 | 0.00 | 0.00 | 43 | 1013.1 |
| 20260901213546 | 100 | 58 | 0.9 | 5.2 | 0.00 | 0.00 | 0.00 | 45 | 1013.1 |
| 20260901213053 | 100 | 0 | 0.0 | 5.2 | 0.00 | 0.00 | 0.00 | 46 | 1013.1 |
| 20260901212546 | 100 | 62 | 0.9 | 3.5 | 0.00 | 0.00 | 0.00 | 45 | 1013.1 |
| 20260901212047 | 100 | 107 | 0.0 | 1.7 | 0.00 | 0.00 | 0.00 | 46 | 1013.3 |
| 20260901211557 | 100 | 0 | 0.0 | 2.6 | 0.00 | 0.00 | 0.00 | 45 | 1013.3 |
| 20260901211046 | 99 | 0 | 0.0 | 2.6 | 0.00 | 0.00 | 0.00 | 48 | 1013.4 |
| 20260901210546 | 99 | 58 | 0.9 | 2.6 | 0.00 | 0.00 | 0.00 | 46 | 1013.5 |
| 20260901210128 | 99 | 57 | 0.0 | 2.6 | 0.00 | 0.00 | 0.00 | 48 | 1013.6 |
| 20260901205547 | 99 | 0 | 0.0 | 1.7 | 0.00 | 0.00 | 0.00 | 47 | 1013.5 |
| 20260901205048 | 98 | 0 | 0.0 | 1.7 | 0.00 | 0.00 | 0.00 | 49 | 1013.7 |
| 20260901204556 | 98 | 0 | 0.0 | 2.6 | 0.00 | 0.00 | 0.00 | 49 | 1013.8 |
| 20260901204046 | 98 | 57 | 0.0 | 2.6 | 0.00 | 0.00 | 0.00 | 49 | 1013.9 |
| 20260901203547 | 98 | 57 | 0.0 | 2.6 | 0.00 | 0.00 | 0.00 | 48 | 1014.0 |
| 20260901203052 | 98 | 0 | 0.9 | 2.6 | 0.00 | 0.00 | 0.00 | 48 | 1014.1 |
| 20260901202547 | 97 | 0 | 0.9 | 2.6 | 0.00 | 0.00 | 0.00 | 49 | 1014.1 |
| 20260901202050 | 97 | 57 | 0.0 | 2.6 | 0.00 | 0.00 | 0.00 | 49 | 1014.2 |
| 20260901201603 | 97 | 56 | 0.9 | 2.6 | 0.00 | 0.00 | 0.00 | 49 | 1014.3 |
| 20260901201047 | 97 | 0 | 0.0 | 2.6 | 0.00 | 0.00 | 0.00 | 49 | 1014.4 |
| 20260901200548 | 97 | 0 | 0.9 | 2.6 | 0.00 | 0.00 | 0.00 | 48 | 1014.4 |
| 20260901200058 | 97 | 0 | 0.9 | 3.5 | 0.00 | 0.00 | 0.00 | 49 | 1014.5 |
| 20260901195546 | 97 | 0 | 0.9 | 3.5 | 0.00 | 0.00 | 0.00 | 48 | 1014.6 |
| 20260901195047 | 97 | 57 | 0.0 | 3.5 | 0.00 | 0.00 | 0.00 | 50 | 1014.6 |
| 20260901194604 | 97 | 56 | 0.9 | 3.5 | 0.00 | 0.00 | 0.00 | 46 | 1014.7 |
| 20260901194046 | 97 | 58 | 0.0 | 3.5 | 0.00 | 0.00 | 0.00 | 49 | 1014.7 |
| 20260901193548 | 97 | 0 | 0.0 | 1.7 | 0.00 | 0.00 | 0.00 | 50 | 1014.7 |
| 20260901193050 | 97 | 0 | 0.0 | 3.5 | 0.00 | 0.00 | 0.00 | 49 | 1014.7 |
| 20260901192547 | 97 | 72 | 0.9 | 3.5 | 0.00 | 0.00 | 0.00 | 48 | 1014.8 |
| 20260901192047 | 97 | 0 | 0.9 | 2.6 | 0.00 | 0.00 | 0.00 | 49 | 1014.8 |
| 20260901191609 | 97 | 0 | 0.9 | 6.1 | 0.00 | 0.00 | 0.00 | 49 | 1015.0 |
| 20260901191046 | 97 | 0 | 1.7 | 6.1 | 0.00 | 0.00 | 0.00 | 48 | 1015.0 |
| 20260901190546 | 97 | 70 | 0.0 | 3.5 | 0.00 | 0.00 | 0.00 | 49 | 1015.1 |
| 20260901190124 | 97 | 69 | 0.9 | 3.5 | 0.00 | 0.00 | 0.00 | 49 | 1015.0 |
| 20260901185547 | 97 | 70 | 0.0 | 6.1 | 0.00 | 0.00 | 0.00 | 50 | 1015.2 |
| 20260901185046 | 96 | 68 | 0.9 | 6.1 | 0.00 | 0.00 | 0.00 | 50 | 1015.3 |
| 20260901184600 | 96 | 82 | 0.9 | 6.1 | 0.00 | 0.00 | 0.00 | 53 | 1015.5 |
| 20260901184046 | 96 | 58 | 1.7 | 6.1 | 0.00 | 0.00 | 0.00 | 51 | 1015.5 |
| 20260901183546 | 95 | 64 | 1.7 | 7.0 | 0.00 | 0.00 | 0.00 | 51 | 1015.6 |
| 20260901183106 | 95 | 61 | 2.6 | 7.0 | 0.00 | 0.00 | 0.00 | 50 | 1015.7 |
| 20260901182546 | 96 | 52 | 1.7 | 7.0 | 0.00 | 0.00 | 0.00 | 50 | 1015.8 |
| 20260901182046 | 96 | 68 | 1.7 | 5.2 | 0.00 | 0.00 | 0.00 | 52 | 1016.0 |
| 20260901181600 | 95 | 60 | 0.9 | 5.2 | 0.00 | 0.00 | 0.00 | 55 | 1016.0 |
| 20260901181045 | 95 | 0 | 0.0 | 5.2 | 0.00 | 0.00 | 0.00 | 55 | 1016.2 |
| 20260901180545 | 95 | 58 | 0.0 | 5.2 | 0.00 | 0.00 | 0.00 | 54 | 1016.2 |
| 20260901180055 | 95 | 58 | 0.9 | 5.2 | 0.00 | 0.00 | 0.00 | 53 | 1016.2 |
| 20260901175548 | 94 | 0 | 0.0 | 5.2 | 0.00 | 0.00 | 0.00 | 55 | 1016.3 |
| 20260901175046 | 94 | 49 | 0.9 | 5.2 | 0.00 | 0.00 | 0.00 | 54 | 1016.4 |
| 20260901174555 | 94 | 76 | 0.9 | 6.1 | 0.00 | 0.00 | 0.00 | 55 | 1016.7 |
| 20260901174046 | 94 | 0 | 1.7 | 6.1 | 0.00 | 0.00 | 0.00 | 54 | 1016.6 |
| 20260901173546 | 94 | 0 | 0.9 | 5.2 | 0.00 | 0.00 | 0.00 | 54 | 1016.7 |
| 20260901173102 | 93 | 62 | 0.9 | 5.2 | 0.00 | 0.00 | 0.00 | 54 | 1016.8 |
| 20260901172546 | 93 | 56 | 0.0 | 5.2 | 0.00 | 0.00 | 0.00 | 55 | 1016.8 |
| 20260901172046 | 93 | 59 | 0.9 | 6.1 | 0.00 | 0.00 | 0.00 | 56 | 1016.9 |
| 20260901171635 | 93 | 55 | 0.9 | 6.1 | 0.00 | 0.00 | 0.00 | 56 | 1017.0 |
| 20260901171046 | 92 | 53 | 1.7 | 6.1 | 0.00 | 0.00 | 0.00 | 57 | 1017.1 |
| 20260901170546 | 92 | 62 | 1.7 | 3.5 | 0.00 | 0.00 | 0.00 | 57 | 1017.2 |
| 20260901170107 | 92 | 53 | 0.9 | 5.2 | 0.00 | 0.00 | 0.00 | 60 | 1017.2 |
| 20260901165549 | 91 | 60 | 0.0 | 5.2 | 0.00 | 0.00 | 0.00 | 61 | 1017.3 |
| 20260901165049 | 91 | 0 | 0.0 | 5.2 | 0.00 | 0.00 | 0.00 | 61 | 1017.2 |
| 20260901164618 | 91 | 61 | 0.0 | 3.5 | 0.00 | 0.00 | 0.00 | 63 | 1017.3 |
| 20260901164046 | 90 | 0 | 0.9 | 3.5 | 0.00 | 0.00 | 0.00 | 63 | 1017.3 |
| 20260901163546 | 90 | 0 | 0.0 | 5.2 | 0.00 | 0.00 | 0.00 | 66 | 1017.2 |
| 20260901163114 | 89 | 0 | 0.9 | 5.2 | 0.00 | 0.00 | 0.00 | 65 | 1017.2 |
| 20260901162545 | 89 | 55 | 0.0 | 3.5 | 0.00 | 0.00 | 0.00 | 67 | 1017.3 |
| 20260901162046 | 88 | 57 | 0.0 | 3.5 | 0.00 | 0.00 | 0.00 | 67 | 1017.3 |
| 20260901161608 | 88 | 0 | 0.0 | 3.5 | 0.00 | 0.00 | 0.00 | 66 | 1017.6 |
| 20260901161046 | 88 | 53 | 0.9 | 3.5 | 0.00 | 0.00 | 0.00 | 68 | 1017.7 |
| 20260901160546 | 88 | 64 | 0.0 | 2.6 | 0.00 | 0.00 | 0.00 | 69 | 1017.7 |
| 20260901155549 | 87 | 0 | 0.0 | 2.6 | 0.00 | 0.00 | 0.00 | 70 | 1017.6 |
| 20260901155049 | 87 | 65 | 0.0 | 2.6 | 0.00 | 0.00 | 0.00 | 71 | 1017.6 |
| 20260901154558 | 86 | 0 | 0.0 | 2.6 | 0.00 | 0.00 | 0.00 | 71 | 1017.7 |
| 20260901154045 | 86 | 0 | 0.9 | 2.6 | 0.00 | 0.00 | 0.00 | 73 | 1017.7 |
| 20260901153547 | 86 | 66 | 0.0 | 1.7 | 0.00 | 0.00 | 0.00 | 75 | 1017.6 |
| 20260901153057 | 86 | 0 | 0.0 | 1.7 | 0.00 | 0.00 | 0.00 | 76 | 1017.6 |
| 20260901152546 | 85 | 0 | 0.0 | 0.9 | 0.00 | 0.00 | 0.00 | 77 | 1017.5 |
| 20260901152046 | 85 | 0 | 0.0 | 1.7 | 0.00 | 0.00 | 0.00 | 77 | 1017.4 |
| 20260901151607 | 84 | 0 | 0.0 | 1.7 | 0.00 | 0.00 | 0.00 | 77 | 1017.4 |
| 20260901151046 | 84 | 0 | 0.0 | 0.0 | 0.00 | 0.00 | 0.00 | 79 | 1017.4 |
| 20260901150545 | 84 | 0 | 0.0 | 1.7 | 0.00 | 0.00 | 0.00 | 79 | 1017.4 |
| 20260901150056 | 84 | 0 | 0.0 | 1.7 | 0.00 | 0.00 | 0.00 | 81 | 1017.4 |
| 20260901145546 | 83 | 66 | 0.0 | 1.7 | 0.00 | 0.00 | 0.00 | 81 | 1017.6 |
| 20260901145047 | 83 | 0 | 0.0 | 1.7 | 0.00 | 0.00 | 0.00 | 82 | 1017.7 |
| 20260901144601 | 83 | 0 | 0.0 | 0.9 | 0.00 | 0.00 | 0.00 | 82 | 1017.7 |
| 20260901144046 | 82 | 0 | 0.0 | 0.9 | 0.00 | 0.00 | 0.00 | 83 | 1017.7 |
| 20260901143545 | 82 | 0 | 0.0 | 0.0 | 0.00 | 0.00 | 0.00 | 83 | 1017.9 |
| 20260901143056 | 82 | 0 | 0.0 | 0.0 | 0.00 | 0.00 | 0.00 | 84 | 1017.8 |
| 20260901142547 | 82 | 0 | 0.0 | 0.0 | 0.00 | 0.00 | 0.00 | 84 | 1017.7 |
| 20260901142046 | 81 | 0 | 0.0 | 0.0 | 0.00 | 0.00 | 0.00 | 85 | 1017.8 |
| 20260901141559 | 81 | 0 | 0.0 | 0.9 | 0.00 | 0.00 | 0.00 | 86 | 1017.8 |
| 20260901141046 | 81 | 0 | 0.0 | 0.9 | 0.00 | 0.00 | 0.00 | 86 | 1017.9 |
| 20260901140545 | 80 | 0 | 0.0 | 0.0 | 0.00 | 0.00 | 0.00 | 86 | 1018.0 |
| 20260901135545 | 80 | 0 | 0.0 | 1.7 | 0.00 | 0.00 | 0.00 | 87 | 1017.9 |
| 20260901135046 | 79 | 0 | 0.0 | 1.7 | 0.00 | 0.00 | 0.00 | 88 | 1017.9 |
| 20260901134603 | 79 | 0 | 0.0 | 0.0 | 0.00 | 0.00 | 0.00 | 89 | 1017.7 |
| 20260901134045 | 79 | 0 | 0.0 | 0.0 | 0.00 | 0.00 | 0.00 | 89 | 1017.6 |
| 20260901133546 | 78 | 0 | 0.0 | 0.0 | 0.00 | 0.00 | 0.00 | 90 | 1017.6 |
| 20260901133105 | 78 | 0 | 0.0 | 0.0 | 0.00 | 0.00 | 0.00 | 90 | 1017.6 |
| 20260901132548 | 78 | 0 | 0.0 | 0.0 | 0.00 | 0.00 | 0.00 | 90 | 1017.5 |
| 20260901132046 | 78 | 0 | 0.0 | 0.0 | 0.00 | 0.00 | 0.00 | 90 | 1017.6 |
| 20260901131602 | 77 | 0 | 0.0 | 0.0 | 0.00 | 0.00 | 0.00 | 90 | 1017.5 |
| 20260901131047 | 77 | 0 | 0.0 | 0.0 | 0.00 | 0.00 | 0.00 | 90 | 1017.4 |
| 20260901130546 | 77 | 0 | 0.0 | 0.0 | 0.00 | 0.00 | 0.00 | 90 | 1017.5 |
| 20260901130058 | 77 | 0 | 0.0 | 0.0 | 0.00 | 0.00 | 0.00 | 91 | 1017.3 |
| 20260901125545 | 76 | 0 | 0.0 | 0.0 | 0.00 | 0.00 | 0.00 | 91 | 1017.3 |
| 20260901125045 | 76 | 0 | 0.0 | 0.0 | 0.00 | 0.00 | 0.00 | 90 | 1017.2 |
| 20260901124556 | 76 | 0 | 0.0 | 0.0 | 0.00 | 0.00 | 0.00 | 90 | 1017.2 |
| 20260901124045 | 76 | 0 | 0.0 | 0.0 | 0.00 | 0.00 | 0.00 | 90 | 1017.2 |
| 20260901123545 | 76 | 0 | 0.0 | 0.0 | 0.00 | 0.00 | 0.00 | 90 | 1017.0 |
| 20260901123055 | 76 | 0 | 0.0 | 0.0 | 0.00 | 0.00 | 0.00 | 89 | 1017.0 |
| 20260901122546 | 76 | 0 | 0.0 | 0.0 | 0.00 | 0.00 | 0.00 | 89 | 1017.0 |
| 20260901122045 | 76 | 0 | 0.0 | 0.0 | 0.00 | 0.00 | 0.00 | 89 | 1017.0 |
| 20260901121557 | 76 | 0 | 0.0 | 0.0 | 0.00 | 0.00 | 0.00 | 89 | 1016.9 |
| 20260901121046 | 77 | 0 | 0.0 | 0.0 | 0.00 | 0.00 | 0.00 | 89 | 1016.9 |
| 20260901120547 | 77 | 0 | 0.0 | 0.0 | 0.00 | 0.00 | 0.00 | 89 | 1017.0 |
| 20260901120056 | 77 | 0 | 0.0 | 0.0 | 0.00 | 0.00 | 0.00 | 88 | 1016.9 |
| 20260901115546 | 77 | 0 | 0.0 | 0.0 | 0.00 | 0.00 | 0.00 | 88 | 1017.0 |
| 20260901115049 | 77 | 0 | 0.0 | 0.0 | 0.00 | 0.00 | 0.00 | 88 | 1016.8 |
| 20260901114556 | 77 | 0 | 0.0 | 0.0 | 0.00 | 0.00 | 0.00 | 88 | 1016.8 |
| 20260901114046 | 77 | 0 | 0.0 | 0.0 | 0.00 | 0.00 | 0.00 | 88 | 1016.8 |
| 20260901113546 | 78 | 0 | 0.0 | 0.0 | 0.00 | 0.00 | 0.00 | 88 | 1016.8 |
| 20260901113051 | 78 | 0 | 0.0 | 0.0 | 0.00 | 0.00 | 0.00 | 87 | 1016.7 |
| 20260901112545 | 78 | 0 | 0.0 | 0.0 | 0.00 | 0.00 | 0.00 | 88 | 1016.7 |
| 20260901112046 | 78 | 0 | 0.0 | 0.0 | 0.00 | 0.00 | 0.00 | 87 | 1016.7 |
| 20260901111609 | 78 | 0 | 0.0 | 0.0 | 0.00 | 0.00 | 0.00 | 87 | 1016.6 |
| 20260901111047 | 78 | 0 | 0.0 | 0.0 | 0.00 | 0.00 | 0.00 | 87 | 1016.6 |
| 20260901110546 | 78 | 0 | 0.0 | 0.0 | 0.00 | 0.00 | 0.00 | 87 | 1016.6 |
| 20260901110058 | 79 | 0 | 0.0 | 0.0 | 0.00 | 0.00 | 0.00 | 87 | 1016.7 |
| 20260901105546 | 79 | 0 | 0.0 | 0.0 | 0.00 | 0.00 | 0.00 | 86 | 1016.5 |
| 20260901105046 | 79 | 0 | 0.0 | 0.0 | 0.00 | 0.00 | 0.00 | 86 | 1016.6 |
| 20260901104558 | 79 | 0 | 0.0 | 0.0 | 0.00 | 0.00 | 0.00 | 85 | 1016.5 |
| 20260901104046 | 79 | 0 | 0.0 | 0.9 | 0.00 | 0.00 | 0.00 | 85 | 1016.5 |
| 20260901103544 | 79 | 0 | 0.0 | 0.9 | 0.00 | 0.00 | 0.00 | 85 | 1016.5 |
| 20260901103057 | 80 | 0 | 0.0 | 0.9 | 0.00 | 0.00 | 0.00 | 85 | 1016.5 |
| 20260901102546 | 80 | 0 | 0.0 | 0.0 | 0.00 | 0.00 | 0.00 | 84 | 1016.4 |
| 20260901102046 | 80 | 0 | 0.0 | 1.7 | 0.00 | 0.00 | 0.00 | 85 | 1016.4 |
| 20260901101559 | 80 | 0 | 0.0 | 1.7 | 0.00 | 0.00 | 0.00 | 84 | 1016.5 |
| 20260901101046 | 80 | 0 | 0.0 | 1.7 | 0.00 | 0.00 | 0.00 | 84 | 1016.4 |
| 20260901100547 | 80 | 0 | 0.0 | 0.0 | 0.00 | 0.00 | 0.00 | 84 | 1016.4 |
| 20260901100100 | 80 | 0 | 0.0 | 0.0 | 0.00 | 0.00 | 0.00 | 84 | 1016.5 |
| 20260901095548 | 80 | 0 | 0.0 | 0.0 | 0.00 | 0.00 | 0.00 | 84 | 1016.6 |
| 20260901095047 | 80 | 0 | 0.0 | 0.0 | 0.00 | 0.00 | 0.00 | 84 | 1016.6 |
| 20260901094559 | 81 | 0 | 0.0 | 0.0 | 0.00 | 0.00 | 0.00 | 84 | 1016.6 |
| 20260901094046 | 81 | 0 | 0.0 | 1.7 | 0.00 | 0.00 | 0.00 | 84 | 1016.7 |
| 20260901093547 | 81 | 0 | 0.0 | 1.7 | 0.00 | 0.00 | 0.00 | 84 | 1016.7 |
| 20260901093058 | 81 | 0 | 0.0 | 1.7 | 0.00 | 0.00 | 0.00 | 84 | 1016.7 |
| 20260901092548 | 81 | 0 | 0.0 | 1.7 | 0.00 | 0.00 | 0.00 | 84 | 1016.8 |
| 20260901092048 | 81 | 0 | 0.0 | 1.7 | 0.00 | 0.00 | 0.00 | 84 | 1016.8 |
| 20260901091604 | 81 | 0 | 0.0 | 1.7 | 0.00 | 0.00 | 0.00 | 84 | 1016.8 |
| 20260901091047 | 81 | 66 | 0.0 | 1.7 | 0.00 | 0.00 | 0.00 | 83 | 1016.9 |
| 20260901090544 | 81 | 0 | 0.0 | 0.0 | 0.00 | 0.00 | 0.00 | 83 | 1016.9 |
| 20260901090100 | 81 | 0 | 0.0 | 1.7 | 0.00 | 0.00 | 0.00 | 83 | 1016.7 |
| 20260901085547 | 81 | 0 | 0.0 | 1.7 | 0.00 | 0.00 | 0.00 | 82 | 1016.7 |
| 20260901085047 | 81 | 0 | 0.0 | 0.0 | 0.00 | 0.00 | 0.00 | 82 | 1016.6 |
| 20260901084557 | 81 | 0 | 0.0 | 0.9 | 0.00 | 0.00 | 0.00 | 82 | 1016.6 |
| 20260901084047 | 81 | 0 | 0.0 | 0.9 | 0.00 | 0.00 | 0.00 | 81 | 1016.5 |
| 20260901083547 | 81 | 0 | 0.0 | 1.7 | 0.00 | 0.00 | 0.00 | 81 | 1016.5 |
| 20260901083059 | 82 | 0 | 0.0 | 1.7 | 0.00 | 0.00 | 0.00 | 81 | 1016.6 |
| 20260901082547 | 82 | 0 | 0.0 | 1.7 | 0.00 | 0.00 | 0.00 | 80 | 1016.6 |
| 20260901082048 | 82 | 0 | 0.0 | 0.9 | 0.00 | 0.00 | 0.00 | 80 | 1016.5 |
| 20260901081556 | 82 | 0 | 0.0 | 0.9 | 0.00 | 0.00 | 0.00 | 80 | 1016.5 |
| 20260901081047 | 82 | 0 | 0.0 | 0.0 | 0.00 | 0.00 | 0.00 | 79 | 1016.5 |
| 20260901080547 | 82 | 0 | 0.0 | 0.0 | 0.00 | 0.00 | 0.00 | 79 | 1016.6 |
| 20260901080112 | 82 | 0 | 0.0 | 1.7 | 0.00 | 0.00 | 0.00 | 78 | 1016.6 |
| 20260901075546 | 82 | 0 | 0.0 | 1.7 | 0.00 | 0.00 | 0.00 | 79 | 1016.6 |
| 20260901075048 | 82 | 0 | 0.0 | 1.7 | 0.00 | 0.00 | 0.00 | 78 | 1016.7 |
| 20260901074554 | 82 | 0 | 0.0 | 1.7 | 0.00 | 0.00 | 0.00 | 78 | 1016.7 |
| 20260901074047 | 83 | 0 | 0.0 | 2.6 | 0.00 | 0.00 | 0.00 | 78 | 1016.6 |
| 20260901073547 | 83 | 0 | 0.0 | 2.6 | 0.00 | 0.00 | 0.00 | 77 | 1016.7 |
| 20260901073102 | 83 | 0 | 0.0 | 2.6 | 0.00 | 0.00 | 0.00 | 77 | 1016.6 |
| 20260901072550 | 83 | 0 | 0.0 | 2.6 | 0.00 | 0.00 | 0.00 | 76 | 1016.6 |
| 20260901072051 | 83 | 0 | 0.0 | 2.6 | 0.00 | 0.00 | 0.00 | 76 | 1016.6 |
| 20260901071603 | 83 | 0 | 0.0 | 2.6 | 0.00 | 0.00 | 0.00 | 76 | 1016.6 |
| 20260901071047 | 83 | 0 | 0.0 | 2.6 | 0.00 | 0.00 | 0.00 | 75 | 1016.6 |
| 20260901070548 | 83 | 0 | 0.0 | 2.6 | 0.00 | 0.00 | 0.00 | 75 | 1016.6 |
| 20260901070103 | 83 | 0 | 0.0 | 2.6 | 0.00 | 0.00 | 0.00 | 75 | 1016.6 |
| 20260901065549 | 84 | 0 | 0.0 | 2.6 | 0.00 | 0.00 | 0.00 | 75 | 1016.5 |
| 20260901065047 | 84 | 0 | 0.0 | 2.6 | 0.00 | 0.00 | 0.00 | 74 | 1016.5 |
| 20260901064608 | 84 | 65 | 0.0 | 3.5 | 0.00 | 0.00 | 0.00 | 74 | 1016.5 |
| 20260901064047 | 84 | 0 | 0.0 | 3.5 | 0.00 | 0.00 | 0.00 | 74 | 1016.5 |
| 20260901063547 | 84 | 0 | 0.0 | 2.6 | 0.00 | 0.00 | 0.00 | 73 | 1016.6 |
| 20260901063123 | 84 | 67 | 0.0 | 2.6 | 0.00 | 0.00 | 0.00 | 73 | 1016.5 |
| 20260901062548 | 84 | 0 | 0.9 | 5.2 | 0.00 | 0.00 | 0.00 | 72 | 1016.5 |
| 20260901062047 | 84 | 0 | 0.9 | 5.2 | 0.00 | 0.00 | 0.00 | 72 | 1016.4 |
| 20260901061602 | 84 | 0 | 0.0 | 5.2 | 0.00 | 0.00 | 0.00 | 71 | 1016.3 |
| 20260901061047 | 85 | 0 | 0.0 | 5.2 | 0.00 | 0.00 | 0.00 | 71 | 1016.3 |